Location: Unspecified
(48.2082°N, 0.0000°E)
Time: 01:12:20
(UTC+00:00)

Tiros 1 despin weight - Pass Details

Date: 24 June 2019
Orbit: 594 x 642 km, 48.2° (Epoch: 21 July)

Event Time Altitude Azimuth Distance (km) Brightness Sun altitude
Rises 03:39:19 0° 284° (WNW) 2,834 ? -3.5°
Reaches altitude 10° 03:41:42 10° 277° (W) 1,928 ? -3.2°
Maximum altitude 03:45:49 40° 208° (SSW) 879 ? -2.7°
Drops below altitude 10° 03:49:57 10° 139° (SE) 1,924 ? -2.2°
Sets 03:52:20 0° 131° (SE) 2,828 ? -1.9°
